Wetbulb
55.38 55.31 55.82 55.99 55.90 55.82 56.00 55.98 55.74 56.03 56.71 56.89 56.93 56.76 56.50 56.63 56.84 57.28 57.73 57.91 58.46 58.83 58.72 58.33 58.44 59.08 52.89 44.17 43.70 52.97 59.27 56.30 53.46 51.73 48.30 46.49 43.28 41.53 38.85 39.67 41.31 39.08 39.66 41.27 40.71 39.65 38.06
55.44 55.17 55.11 55.33 55.66 55.70 55.71 55.76 55.43 55.63 56.05 56.45 56.40 56.17 55.93 55.87 56.21 56.54 57.17 57.37 57.85 58.26 58.53 58.50 58.86 57.88 46.60 38.20 51.81 53.01 51.55 51.87 50.97 49.76 46.65 46.37 43.44 43.84 41.91 40.53 39.67 40.47 40.60 40.21 40.84 39.49 38.55
55.62 55.22 55.16 55.09 54.95 55.31 55.59 55.34 55.20 55.29 55.69 55.90 55.93 55.64 55.30 55.32 55.78 56.10 56.64 56.85 57.27 57.64 57.93 57.60 58.37 52.54 44.89 42.46 50.83 50.78 50.80 49.29 49.69 48.97 45.69 46.92 46.32 43.06 41.91 39.89 42.83 41.78 38.05 38.31 38.30 39.30 37.54
56.36 55.89 55.43 55.35 54.92 54.78 55.02 55.28 54.91 54.97 55.40 55.50 55.46 55.12 54.83 54.78 55.34 55.67 56.05 56.36 56.97 57.20 57.46 57.34 58.28 46.85 40.40 50.71 49.55 49.95 50.31 49.06 50.24 49.82 48.08 47.42 46.27 43.93 42.05 41.57 40.18 36.18 35.06 31.07 36.93 39.73 38.04
58.01 57.00 56.56 55.84 55.36 54.92 54.81 54.86 54.96 54.88 54.85 55.02 54.89 54.70 54.38 54.40 54.85 55.21 55.58 56.19 57.14 57.09 57.33 56.96 46.95 44.08 39.94 53.37 47.27 49.04 48.12 46.91 48.23 47.93 47.81 49.57 45.03 39.83 39.66 34.62 30.80 31.45 26.28 28.67 33.13 40.00 37.95
58.76 58.31 57.60 57.08 56.52 55.25 55.08 55.01 54.69 54.69 54.65 54.46 54.37 54.12 53.91 54.04 54.59 54.92 55.60 55.74 55.61 53.57 52.13 50.01 47.55 40.76 43.28 43.19 46.27 47.84 47.72 48.57 45.58 44.67 43.63 42.15 37.95 34.01 33.03 30.24 25.62 27.02 27.42 28.92 30.04 36.70 36.52
59.24 58.95 58.88 58.06 57.28 56.61 55.44 55.22 54.99 54.45 54.46 54.17 53.73 53.66 53.52 53.82 54.48 54.88 51.18 45.71 43.73 41.80 43.60 39.78 40.31 40.68 43.70 47.15 48.65 46.23 46.52 45.98 44.57 41.28 33.98 37.01 32.48 29.05 32.26 33.41 32.01 30.80 28.72 28.50 31.07 37.28 35.59
59.77 59.15 59.57 59.03 57.84 57.39 56.70 55.71 55.17 54.67 54.24 54.06 53.26 53.02 53.03 53.72 53.88 54.71 47.29 42.42 42.90 43.87 37.55 43.57 43.28 43.26 45.37 45.64 41.27 44.13 46.74 40.31 38.95 34.46 35.24 32.56 29.90 33.51 36.89 35.09 33.49 30.98 28.25 28.59 32.47 36.46 35.39
60.54 59.88 59.51 59.52 58.97 57.80 57.40 56.65 55.52 54.82 54.22 53.68 53.02 52.47 52.48 53.33 54.08 47.66 43.77 43.67 48.19 46.53 38.13 40.39 43.39 42.57 42.88 44.95 40.27 41.00 43.33 40.88 37.48 34.57 33.36 29.39 32.83 38.58 36.84 33.70 32.45 30.13 27.96 28.30 29.38 32.07 33.01
60.77 60.45 59.98 59.57 59.32 58.64 58.17 57.50 56.27 55.18 54.14 53.19 52.78 52.17 52.22 52.49 46.62 41.02 41.48 47.02 48.06 46.54 30.84 34.60 38.55 41.37 43.54 43.89 38.41 44.33 42.43 40.65 36.99 35.36 34.06 32.73 36.69 36.50 33.76 33.12 32.98 27.76 32.19 32.09 31.38 27.94 24.51
61.27 60.66 60.19 59.61 59.29 58.94 58.32 57.97 57.14 55.91 54.38 52.91 52.48 51.55 51.93 50.88 40.93 40.88 43.78 47.42 46.85 41.15 20.77 36.95 38.99 45.06 42.07 39.19 40.04 40.21 42.61 39.72 34.54 35.10 34.04 31.60 33.45 32.78 32.48 33.14 33.87 30.82 33.72 31.25 30.10 26.41 23.50
61.05 61.15 60.38 59.77 59.32 58.91 58.46 58.16 57.66 56.64 54.97 53.07 52.22 50.96 50.87 43.56 41.95 43.66 47.12 45.97 43.26 30.77 21.31 34.07 37.89 36.09 35.56 37.06 37.49 39.54 38.74 39.22 37.99 34.51 32.76 31.12 35.13 33.98 32.83 34.50 33.87 34.96 30.95 29.35 26.85 24.97 19.57
59.24 60.40 60.46 59.99 59.53 59.00 58.53 58.06 57.65 56.73 55.32 53.59 51.99 50.59 47.64 44.97 38.78 45.20 45.38 40.05 28.97 23.27 34.09 33.33 33.58 35.41 33.94 33.43 34.70 35.19 33.86 30.91 29.84 26.31 26.31 29.57 30.72 33.52 35.34 31.38 32.87 30.49 25.86 21.79 20.20 19.48 20.43
58.12 58.37 59.15 60.07 59.76 59.25 58.74 58.22 57.90 57.10 55.69 53.43 51.87 50.16 45.29 45.11 45.37 44.90 40.14 33.19 23.85 30.70 31.11 35.39 34.96 33.65 31.66 34.09 32.18 33.20 30.99 29.08 30.83 29.62 26.20 25.05 25.56 31.50 32.89 30.06 29.00 27.75 26.74 22.37 21.21 18.60 21.29
56.35 57.62 57.74 57.58 58.70 59.54 59.13 58.53 58.06 57.00 55.07 52.42 49.64 41.43 42.13 41.58 45.67 41.87 35.23 24.18 26.27 30.12 35.64 34.19 33.36 29.29 29.50 32.32 31.61 30.24 29.14 28.88 30.89 31.17 28.95 25.34 26.24 30.02 30.97 30.47 31.23 28.82 26.05 27.70 23.81 19.49 16.63
54.45 55.67 56.76 57.47 57.90 57.90 58.89 58.95 58.31 57.01 53.99 49.78 39.26 39.12 39.79 43.79 43.27 38.80 30.77 29.41 30.16 35.59 35.72 33.72 31.06 31.77 27.86 29.43 29.46 28.67 28.33 30.30 31.26 31.23 28.73 28.86 24.65 27.15 29.37 29.95 29.59 28.86 30.48 23.83 22.33 18.19 16.53
53.76 53.70 54.04 56.16 56.88 56.56 57.68 58.87 58.64 56.81 51.79 47.42 41.77 37.14 40.04 44.82 42.55 34.05 25.85 27.41 32.56 37.10 37.67 34.19 31.67 29.92 30.07 29.46 29.47 27.36 29.20 29.80 31.71 29.65 28.84 27.11 26.87 23.01 26.22 26.19 26.13 25.98 24.97 23.97 24.06 21.62 17.02
53.79 53.45 54.01 55.25 55.51 55.43 56.85 57.83 58.26 55.15 49.98 46.38 42.92 37.62 43.23 44.49 34.36 31.72 26.94 30.76 38.06 35.44 35.98 35.31 32.82 32.88 31.01 30.43 28.15 27.30 29.52 29.94 32.29 31.30 28.42 28.53 25.38 21.47 24.23 23.93 25.17 24.98 25.48 24.68 20.90 19.61 18.04
54.03 53.45 53.17 54.33 54.04 54.53 55.28 55.94 57.29 52.91 51.24 44.03 40.19 39.95 45.84 42.84 29.43 30.01 33.40 33.80 35.04 33.96 34.04 34.44 33.26 34.21 32.20 30.63 29.02 28.95 29.05 30.41 31.44 30.20 28.10 28.96 23.70 18.37 22.92 22.48 22.85 22.39 23.90 24.29 21.28 20.01 17.03
52.85 53.43 52.90 53.48 53.45 52.96 53.63 54.33 55.74 52.68 49.95 45.85 40.38 36.62 39.48 39.60 37.93 33.07 32.73 33.39 33.49 36.10 35.20 34.84 33.24 33.31 31.08 29.64 30.16 28.77 28.04 29.40 30.86 31.47 35.89 32.60 24.04 24.34 24.07 24.65 23.09 21.12 22.36 23.16 23.10 14.25 20.14
51.77 52.83 53.01 52.73 52.40 52.41 52.58 53.26 54.86 53.10 50.24 46.75 40.70 39.77 39.55 32.23 33.47 34.21 33.88 33.14 33.86 32.41 35.24 36.10 33.01 32.16 31.80 29.05 29.09 28.34 27.91 27.16 29.76 33.50 29.17 27.85 22.85 21.37 22.19 24.18 23.98 23.76 23.47 21.35 21.51 24.31 20.36
51.38 51.73 52.68 52.29 51.44 51.41 52.17 52.62 53.75 52.58 50.39 44.26 39.48 37.58 38.13 36.55 36.49 34.56 34.15 32.57 34.47 36.24 33.32 33.12 31.82 33.63 33.49 31.13 31.67 29.79 29.29 28.10 28.67 27.92 27.48 25.93 22.73 21.86 19.57 23.10 22.35 21.71 23.15 23.62 23.50 24.22 21.25
50.73 50.51 51.39 52.25 51.57 51.23 51.27 51.56 53.34 51.93 50.01 42.19 39.40 40.11 39.46 37.59 35.87 34.01 32.43 33.85 35.00 36.40 35.61 35.83 32.87 33.43 32.83 33.78 32.14 29.65 29.40 29.79 30.38 27.70 25.80 24.55 23.03 21.09 16.55 18.64 20.17 17.36 18.90 23.44 23.54 20.88 22.75
49.78 50.53 50.50 52.02 51.91 51.78 51.31 51.01 53.09 51.56 50.07 43.60 39.96 40.44 37.71 33.43 35.10 34.42 36.02 35.19 34.67 35.35 34.08 32.93 32.99 32.68 30.73 31.36 31.11 30.84 28.31 27.00 27.05 25.07 27.33 23.27 23.56 23.42 18.06 17.26 9.73 18.21 16.03 15.71 16.42 15.42 11.58
49.77 49.83 50.46 51.64 52.15 51.91 51.63 50.67 52.11 51.72 50.99 44.00 40.35 41.22 38.46 32.26 34.53 34.79 36.01 35.23 34.03 34.25 32.88 32.11 30.35 30.84 31.57 29.29 27.13 26.22 24.02 26.10 23.09 22.42 23.49 25.11 24.89 20.45 18.41 13.27 17.91 14.18 14.72 13.54 14.95 14.20 10.38
49.01 49.54 49.84 50.68 51.63 51.44 51.36 51.17 50.86 51.79 51.16 43.77 41.87 43.81 41.57 35.59 33.63 37.15 34.87 33.79 30.80 29.72 28.76 30.11 31.30 32.00 30.17 30.06 27.80 24.07 21.31 24.47 16.68 17.73 21.87 23.92 24.19 24.54 16.79 14.99 12.23 14.35 15.40 17.21 10.46 10.29 11.52
48.26 48.32 48.96 49.87 50.29 51.43 51.14 51.21 51.04 51.01 51.53 44.03 40.26 40.24 40.99 35.93 32.60 34.62 33.69 31.80 34.46 31.58 28.21 27.63 28.01 27.83 30.20 26.51 24.63 23.29 22.34 23.00 18.19 16.05 14.36 18.16 18.88 19.38 19.57 17.23 15.74 16.00 17.79 17.22 9.52 13.72 14.64
47.47 47.02 47.31 48.64 49.48 49.96 50.28 51.03 50.89 50.76 50.80 44.69 37.62 39.01 39.63 34.55 28.12 30.10 30.93 31.89 31.13 32.04 27.24 27.13 26.99 25.69 25.82 23.48 25.05 24.49 22.16 21.33 19.36 18.72 16.53 17.09 16.94 15.60 18.93 15.91 11.07 17.53 17.46 16.70 16.84 14.57 15.79
46.73 46.89 47.42 48.54 49.27 49.84 50.35 50.71 50.84 50.73 50.02 43.96 36.00 36.68 36.06 32.18 26.99 30.29 29.83 30.88 29.88 29.98 30.20 29.24 28.29 27.04 27.95 26.41 26.36 27.16 24.31 21.06 18.07 16.10 19.41 16.69 22.01 18.98 20.42 19.65 19.14 20.16 17.68 17.18 18.09 17.26 16.38
MSLP
1023.63 1023.51 1023.38 1023.14 1022.92 1022.67 1022.36 1022.01 1021.74 1021.48 1021.26 1021.25 1021.00 1020.76 1020.59 1020.32 1020.11 1019.82 1019.31 1018.90 1018.83 1018.43 1018.17 1017.90 1017.71 1017.56 1017.33 1017.48 1017.32 1016.88 1016.69 1016.38 1015.95 1015.81 1016.05 1016.11 1016.15 1016.43 1016.82 1017.16 1017.59 1018.36 1019.29 1019.82 1020.47 1020.93 1022.03
1023.48 1023.55 1023.45 1023.17 1022.99 1022.85 1022.64 1022.44 1022.07 1021.67 1021.34 1021.18 1020.99 1020.64 1020.35 1020.13 1019.96 1019.58 1019.24 1018.90 1018.76 1018.56 1018.20 1017.89 1017.71 1017.51 1017.59 1017.70 1017.24 1017.15 1017.04 1016.60 1016.49 1016.40 1016.43 1016.43 1016.58 1016.68 1017.09 1017.71 1018.20 1018.96 1019.51 1020.24 1020.68 1021.35 1022.29
1023.61 1023.40 1023.44 1023.32 1023.04 1022.78 1022.69 1022.59 1022.44 1022.09 1021.66 1021.26 1020.80 1020.59 1020.28 1019.92 1019.66 1019.45 1019.14 1018.77 1018.70 1018.50 1018.22 1017.90 1017.74 1017.62 1017.55 1017.45 1017.24 1017.18 1017.06 1016.91 1016.81 1016.75 1016.76 1016.84 1016.85 1016.99 1017.38 1018.13 1018.77 1019.29 1020.05 1020.47 1020.93 1021.40 1022.29
1023.71 1023.50 1023.24 1023.24 1023.06 1022.87 1022.57 1022.52 1022.41 1022.19 1021.77 1021.27 1020.92 1020.66 1020.31 1019.77 1019.39 1019.27 1018.90 1018.60 1018.46 1018.33 1018.12 1017.90 1017.78 1017.70 1017.49 1017.23 1017.19 1017.16 1017.12 1016.93 1016.89 1016.79 1016.87 1016.89 1016.94 1017.28 1017.86 1018.57 1019.23 1019.86 1020.34 1020.86 1020.87 1021.31 1022.33
1023.79 1023.62 1023.44 1023.07 1022.79 1022.86 1022.69 1022.30 1022.13 1021.99 1021.73 1021.52 1021.14 1020.80 1020.34 1019.80 1019.27 1019.00 1018.62 1018.25 1018.03 1018.09 1018.01 1017.83 1017.86 1017.79 1017.60 1017.24 1017.33 1017.40 1017.35 1017.40 1017.19 1016.99 1016.89 1016.93 1017.16 1018.34 1018.65 1019.44 1020.39 1020.71 1020.74 1020.89 1020.90 1021.18 1022.04
1023.57 1023.48 1023.40 1023.19 1022.97 1022.44 1022.61 1022.51 1022.07 1021.73 1021.49 1021.46 1021.29 1020.82 1020.49 1019.96 1019.41 1018.73 1018.23 1017.98 1017.73 1017.74 1017.85 1017.77 1017.88 1018.26 1017.78 1017.65 1017.56 1017.60 1017.43 1017.41 1017.50 1017.40 1017.40 1017.67 1018.47 1019.27 1019.85 1020.13 1020.56 1020.56 1020.63 1020.49 1020.61 1021.12 1021.95
1023.41 1023.33 1023.28 1023.23 1022.98 1022.61 1022.23 1022.19 1022.25 1021.68 1021.43 1021.08 1021.07 1020.99 1020.51 1020.03 1019.39 1018.73 1018.16 1018.04 1018.65 1018.58 1018.23 1018.09 1018.15 1018.01 1017.79 1017.74 1017.60 1017.71 1017.75 1017.62 1017.61 1017.89 1018.36 1018.80 1019.31 1019.57 1019.54 1019.74 1019.60 1019.83 1020.04 1020.07 1020.16 1020.61 1021.55
1022.66 1022.96 1023.11 1023.11 1022.96 1022.80 1022.36 1021.94 1021.86 1021.86 1021.38 1021.09 1020.74 1020.60 1020.40 1020.05 1019.39 1018.84 1018.71 1019.22 1019.79 1019.99 1018.93 1018.06 1018.01 1018.00 1017.81 1017.75 1017.86 1017.84 1017.84 1018.02 1018.00 1018.43 1018.81 1019.40 1019.34 1019.06 1019.12 1019.36 1019.49 1019.60 1019.86 1020.08 1020.21 1020.69 1021.63
1022.44 1022.37 1022.43 1022.59 1022.84 1022.73 1022.59 1022.32 1021.67 1021.75 1021.38 1021.08 1020.83 1020.24 1019.94 1019.87 1019.41 1019.04 1019.42 1019.76 1019.94 1019.93 1019.63 1018.37 1017.90 1017.82 1017.84 1017.89 1017.96 1018.12 1018.20 1018.14 1018.19 1018.66 1019.02 1019.31 1019.06 1018.87 1019.09 1019.41 1019.69 1019.92 1020.12 1020.22 1020.64 1021.08 1021.77
1022.11 1022.17 1021.99 1022.17 1022.17 1022.26 1022.54 1022.46 1021.97 1021.71 1021.27 1021.01 1020.73 1020.42 1019.63 1019.37 1019.83 1019.62 1019.69 1019.54 1019.80 1019.84 1019.94 1018.49 1018.07 1017.74 1017.79 1017.78 1018.22 1018.22 1018.31 1018.48 1018.36 1018.62 1019.19 1019.27 1019.00 1018.98 1019.24 1019.52 1019.84 1020.25 1020.16 1020.52 1021.11 1021.88 1022.81
1021.63 1021.67 1021.71 1021.63 1021.62 1021.65 1021.86 1021.95 1022.22 1021.88 1021.42 1020.74 1020.70 1020.27 1019.92 1018.80 1020.41 1020.02 1019.93 1019.66 1019.64 1019.96 1019.81 1018.40 1017.97 1017.77 1017.82 1018.17 1018.46 1018.44 1018.40 1018.36 1018.58 1018.81 1019.33 1019.28 1019.33 1019.38 1019.68 1019.83 1019.93 1020.55 1020.74 1021.39 1021.96 1022.88 1023.59
1021.16 1021.07 1021.06 1021.17 1021.19 1021.17 1021.25 1021.43 1021.48 1021.57 1021.69 1020.92 1020.47 1020.21 1020.01 1019.64 1019.78 1020.36 1020.07 1020.04 1019.90 1020.52 1019.13 1018.11 1017.89 1017.87 1018.15 1018.30 1018.44 1018.53 1018.59 1018.58 1018.88 1019.21 1019.44 1019.63 1019.56 1019.73 1019.98 1020.38 1020.52 1020.96 1021.58 1022.56 1023.40 1024.11 1024.69
1021.05 1020.78 1020.50 1020.65 1020.68 1020.65 1020.72 1020.90 1021.08 1020.98 1021.25 1021.35 1020.67 1020.07 1019.98 1019.88 1019.51 1019.61 1020.36 1020.51 1020.89 1019.94 1018.31 1018.05 1017.89 1017.97 1018.12 1018.52 1018.74 1018.77 1018.92 1019.14 1019.46 1019.93 1020.19 1020.16 1020.07 1020.15 1020.14 1020.75 1021.19 1021.52 1022.38 1023.43 1024.41 1024.90 1024.44
1021.08 1020.73 1020.31 1020.08 1020.10 1020.18 1020.16 1020.18 1020.46 1020.59 1020.69 1021.03 1020.80 1020.18 1019.59 1019.63 1019.61 1019.49 1020.22 1021.36 1020.64 1018.34 1017.73 1017.44 1017.67 1018.14 1018.28 1018.24 1018.64 1018.96 1019.32 1019.62 1019.67 1019.93 1020.74 1020.73 1020.74 1020.64 1020.81 1020.91 1021.25 1021.96 1022.46 1023.20 1023.80 1024.63 1024.69
1021.04 1020.71 1020.36 1019.97 1019.70 1019.77 1019.59 1019.49 1019.75 1020.07 1020.25 1020.57 1020.66 1020.32 1019.96 1019.18 1019.46 1019.99 1020.14 1021.33 1019.37 1018.04 1016.89 1017.12 1017.85 1018.12 1018.29 1018.23 1018.55 1019.17 1019.51 1019.54 1019.17 1019.32 1020.03 1020.68 1020.83 1021.04 1021.15 1021.27 1021.66 1022.39 1022.66 1022.81 1023.59 1024.67 1025.26
1021.02 1020.86 1020.36 1019.95 1019.60 1019.40 1019.22 1019.08 1019.05 1019.37 1019.96 1020.42 1020.65 1020.25 1019.99 1019.33 1019.33 1020.06 1020.85 1019.42 1018.26 1017.19 1016.96 1016.99 1017.03 1017.10 1017.88 1018.27 1018.73 1019.15 1019.15 1018.79 1019.20 1019.33 1019.39 1020.12 1020.92 1021.46 1021.64 1021.88 1022.09 1022.01 1022.49 1023.27 1024.15 1024.97 1025.26
1020.36 1020.21 1020.05 1019.89 1019.70 1019.30 1018.95 1018.54 1018.36 1018.79 1019.56 1020.28 1020.59 1020.88 1020.13 1019.69 1019.37 1020.09 1020.21 1018.97 1017.06 1016.14 1016.24 1016.74 1016.63 1016.97 1017.31 1017.74 1018.16 1018.72 1018.58 1018.62 1018.80 1019.65 1019.86 1020.12 1020.60 1022.26 1022.22 1022.09 1021.98 1022.67 1022.76 1023.35 1023.96 1024.62 1025.13
1020.12 1019.86 1019.52 1019.38 1019.12 1018.96 1018.51 1018.24 1017.93 1018.29 1019.40 1019.86 1020.28 1020.94 1020.28 1019.80 1019.88 1019.43 1019.02 1017.71 1016.49 1016.07 1016.16 1016.33 1016.38 1016.54 1016.89 1017.11 1017.88 1018.40 1018.20 1017.98 1018.19 1019.01 1020.12 1020.04 1020.80 1021.79 1021.59 1021.91 1022.29 1022.32 1022.44 1022.88 1024.00 1024.90 1025.42
1019.64 1019.65 1019.50 1019.21 1018.95 1018.56 1018.27 1018.05 1017.66 1018.12 1018.30 1019.78 1019.90 1020.31 1020.29 1020.11 1019.67 1019.07 1018.21 1017.30 1016.55 1016.51 1016.14 1016.19 1016.26 1016.12 1016.32 1016.86 1017.71 1017.66 1017.84 1018.45 1018.59 1019.02 1019.23 1019.91 1020.85 1021.62 1021.98 1022.58 1022.64 1022.72 1022.57 1022.95 1023.61 1024.29 1024.88
1019.21 1019.11 1018.96 1018.86 1018.68 1018.53 1018.21 1017.85 1017.78 1018.22 1018.76 1019.40 1020.07 1020.56 1020.61 1020.50 1019.96 1018.90 1018.27 1017.71 1017.03 1016.38 1016.20 1016.11 1016.10 1016.14 1016.53 1016.82 1016.91 1017.45 1018.43 1019.03 1019.19 1019.41 1019.59 1019.64 1020.39 1020.47 1020.58 1020.88 1021.43 1022.62 1022.58 1022.95 1023.41 1024.51 1023.93
1018.85 1018.70 1018.60 1018.48 1018.34 1018.12 1018.08 1017.92 1017.60 1018.20 1018.29 1018.95 1020.02 1019.64 1019.10 1019.81 1019.71 1019.18 1018.67 1018.57 1017.95 1017.15 1016.80 1016.58 1016.48 1016.74 1016.70 1017.12 1017.51 1017.97 1018.74 1019.70 1020.01 1019.99 1020.15 1020.56 1020.79 1020.75 1020.87 1021.25 1021.62 1022.07 1022.50 1023.08 1023.43 1022.88 1023.83
1018.45 1018.14 1018.13 1018.15 1017.95 1017.85 1017.74 1017.77 1017.56 1018.03 1018.43 1018.56 1019.36 1020.20 1020.01 1019.36 1019.00 1018.98 1019.11 1018.18 1017.99 1018.01 1018.36 1017.84 1017.65 1017.63 1017.83 1017.99 1017.94 1018.42 1018.92 1019.60 1019.75 1020.87 1020.93 1021.14 1021.26 1021.50 1021.78 1021.92 1022.43 1022.78 1023.00 1023.18 1023.09 1023.30 1023.58
1017.86 1017.75 1017.73 1017.65 1017.60 1017.54 1017.43 1017.39 1017.55 1017.99 1018.07 1018.19 1019.64 1019.87 1020.30 1019.39 1019.00 1019.00 1018.57 1018.04 1017.60 1017.97 1018.44 1018.75 1019.13 1019.33 1019.45 1019.34 1019.36 1019.66 1019.85 1020.03 1020.06 1020.43 1021.09 1021.37 1021.74 1022.38 1022.67 1023.06 1023.43 1023.49 1022.95 1022.84 1022.86 1023.37 1024.23
1017.11 1017.20 1017.20 1017.13 1017.11 1017.19 1017.14 1017.06 1017.14 1017.56 1017.81 1018.18 1018.71 1019.54 1019.91 1019.43 1018.95 1018.52 1018.27 1018.27 1018.18 1018.23 1018.76 1019.68 1020.22 1020.31 1020.78 1020.56 1020.71 1020.73 1020.60 1020.60 1020.91 1021.44 1021.27 1021.57 1021.86 1022.47 1023.54 1024.19 1024.35 1022.90 1023.39 1023.95 1024.39 1024.95 1025.78
1016.53 1016.59 1016.60 1016.44 1016.44 1016.60 1016.76 1016.80 1017.02 1017.43 1017.67 1018.35 1018.56 1018.82 1019.42 1019.40 1018.93 1018.65 1018.69 1018.47 1018.69 1018.90 1019.52 1019.94 1020.86 1021.40 1021.61 1021.63 1021.19 1021.37 1021.56 1021.42 1021.36 1021.69 1021.72 1021.76 1021.96 1023.17 1024.01 1024.75 1023.22 1023.69 1024.21 1024.87 1025.29 1025.96 1026.73
1016.13 1016.03 1016.08 1016.01 1015.86 1016.04 1016.22 1016.44 1016.58 1016.85 1017.30 1018.15 1018.51 1018.44 1018.83 1018.86 1018.87 1018.39 1018.70 1019.01 1019.21 1019.69 1020.29 1020.57 1021.34 1021.80 1021.98 1021.42 1021.03 1020.71 1020.63 1020.36 1021.45 1022.00 1022.23 1022.22 1022.28 1022.98 1024.34 1024.72 1024.13 1023.88 1024.46 1024.98 1025.87 1026.77 1027.12
1015.64 1015.51 1015.47 1015.50 1015.49 1015.59 1015.76 1015.91 1016.17 1016.35 1016.74 1017.79 1018.56 1018.80 1018.37 1019.19 1019.81 1019.07 1019.66 1019.17 1019.14 1019.91 1020.57 1021.08 1021.59 1022.05 1022.25 1021.62 1020.93 1020.52 1020.35 1020.31 1020.93 1021.58 1022.32 1022.54 1022.74 1022.85 1023.82 1024.36 1023.78 1023.78 1024.88 1025.70 1026.94 1027.56 1027.37
1015.23 1015.19 1015.06 1015.05 1014.97 1014.96 1015.14 1015.33 1015.61 1015.96 1016.28 1017.26 1018.55 1018.67 1018.87 1019.23 1020.31 1020.13 1020.58 1020.24 1020.03 1020.18 1020.49 1021.37 1021.93 1022.34 1022.12 1021.82 1021.09 1020.38 1020.41 1020.49 1020.70 1021.07 1021.54 1021.66 1022.28 1023.15 1024.19 1024.82 1024.58 1024.25 1025.44 1025.89 1026.06 1026.70 1027.24
1014.89 1014.79 1014.62 1014.51 1014.40 1014.38 1014.49 1014.67 1014.99 1015.44 1015.94 1016.72 1018.30 1018.74 1018.89 1019.74 1021.19 1021.45 1021.46 1021.49 1021.18 1021.09 1020.78 1020.88 1020.91 1021.06 1021.02 1020.98 1020.77 1020.47 1020.73 1021.04 1021.10 1021.50 1021.63 1021.90 1021.32 1021.95 1022.86 1023.23 1023.71 1024.52 1025.05 1025.35 1025.81 1026.47 1027.73
Wind_Speed
4 5 6 8 10 10 10 9 9 9 10 10 11 11 12 14 14 15 15 14 13 11 8 8 9 9 3 2 2 4 12 10 5 4 4 2 3 2 3 3 3 5 3 5 6 10 8
3 5 6 6 8 10 12 12 11 10 9 10 11 11 12 13 14 14 14 14 13 11 8 7 7 8 1 1 2 6 8 6 5 4 4 5 2 1 5 3 3 3 6 5 3 5 5
1 2 4 6 7 8 10 11 12 12 11 10 11 12 12 13 14 15 14 14 13 10 8 7 7 2 2 3 2 6 5 2 4 2 2 2 1 2 2 4 5 6 5 2 2 4 4
3 2 1 4 6 7 7 9 11 13 13 13 13 12 12 12 14 14 14 13 12 10 8 6 6 1 3 2 2 4 6 3 5 3 1 1 2 4 4 3 6 4 5 3 2 4 1
8 6 5 4 3 6 7 7 8 11 13 15 14 14 14 14 13 14 13 14 9 7 8 6 1 1 4 3 2 4 2 2 5 2 1 1 4 4 5 6 5 6 2 3 2 6 5
12 12 9 7 7 3 6 8 7 9 10 14 16 15 15 14 13 13 15 5 5 5 1 0 1 3 1 1 2 3 3 2 3 2 4 6 6 4 4 4 5 6 4 4 4 6 3
12 13 10 10 9 7 5 6 9 8 9 10 14 16 17 16 14 11 7 4 5 3 5 3 2 1 1 3 1 4 3 2 2 6 2 3 4 6 9 7 3 5 3 4 3 5 5
12 12 12 12 12 11 8 6 6 9 9 10 10 13 17 18 17 9 3 5 1 1 5 3 2 1 1 1 1 2 3 2 2 2 3 6 5 5 3 5 4 3 2 4 2 2 5
13 13 12 11 13 13 12 10 6 8 8 9 11 11 13 18 19 3 3 4 1 2 1 3 3 3 2 3 2 2 1 2 3 4 4 6 2 4 3 2 3 1 4 3 3 2 2
14 14 13 12 12 12 12 12 10 9 7 8 9 12 11 16 3 1 1 1 2 1 5 4 3 1 2 3 1 1 1 1 1 8 6 4 0 3 2 3 5 3 3 2 3 3 4
13 15 15 14 13 13 12 11 13 11 9 6 8 10 12 9 2 1 0 1 3 4 4 1 2 0 1 4 2 2 1 2 3 4 5 4 4 3 2 2 3 3 3 3 3 4 3
12 14 16 15 14 13 13 12 11 10 11 8 6 7 9 2 4 3 4 2 3 8 9 3 3 3 3 1 1 1 1 3 1 3 2 0 0 1 2 3 2 5 5 7 5 3 2
12 12 13 14 15 14 13 12 12 10 9 11 8 5 5 1 3 4 3 4 6 5 2 4 4 4 3 5 2 4 3 2 5 4 4 1 2 1 2 4 2 4 5 3 4 2 6
10 9 9 12 13 14 14 14 13 12 9 9 10 7 1 3 2 4 5 6 5 6 7 3 4 3 6 7 2 4 4 3 4 4 3 5 5 5 1 2 6 5 7 6 6 4 4
12 11 10 7 9 14 16 15 15 13 10 8 8 3 2 2 4 3 6 3 9 8 5 10 3 4 5 4 5 4 6 6 8 10 10 6 4 1 1 1 3 5 5 2 4 2 3
14 14 12 10 10 11 14 16 16 14 10 4 3 2 2 2 5 5 4 8 7 4 4 2 10 7 8 7 7 7 8 5 5 7 1 6 2 1 1 1 2 3 4 4 2 3 6
11 12 13 14 11 14 15 15 16 15 13 7 2 2 2 1 3 4 6 9 7 7 7 8 8 6 7 8 8 7 7 3 6 6 3 5 4 1 2 8 9 3 3 3 3 5 6
13 13 12 11 10 12 15 13 13 19 15 6 3 2 2 2 2 2 5 8 5 5 3 6 3 7 10 9 9 7 12 5 9 10 10 7 5 6 7 1 1 1 6 7 6 6 3
13 13 14 12 10 11 10 9 10 21 16 5 3 1 2 3 5 5 4 5 4 5 6 8 8 7 5 9 4 8 7 2 6 8 10 9 4 2 5 2 1 5 5 4 5 4 7
13 13 12 11 10 11 12 9 11 20 13 4 2 2 2 1 2 3 1 4 5 1 3 4 3 4 4 6 5 6 6 2 3 4 3 4 4 7 9 4 6 6 6 6 7 5 5
13 14 13 11 9 9 10 12 14 19 16 6 1 3 1 5 6 7 3 3 4 4 3 2 1 5 6 7 5 6 3 3 3 2 3 3 7 4 3 3 3 5 5 9 12 13 11
13 12 14 11 10 9 7 9 15 18 11 3 4 1 3 1 2 9 10 9 10 7 2 4 2 5 2 4 1 4 6 4 5 1 6 1 1 3 3 2 5 6 8 11 15 12 13
13 13 14 13 10 8 5 6 14 19 9 2 2 1 1 3 3 4 5 7 9 9 8 5 2 1 5 6 4 3 3 3 4 7 8 7 6 4 4 3 6 10 15 20 7 3 6
15 14 15 15 11 9 5 4 13 20 13 1 3 4 2 4 6 4 4 8 9 7 2 3 3 5 2 6 4 1 9 7 5 4 2 5 6 3 0 3 4 3 1 2 3 3 3
15 15 15 15 13 10 8 5 9 19 19 2 3 4 4 3 4 4 7 3 1 2 5 3 3 2 5 1 3 4 1 1 3 2 0 1 4 3 3 4 7 2 5 6 6 6 6
14 13 12 12 12 11 11 9 7 15 19 3 2 1 3 3 7 1 2 4 3 2 1 3 3 3 2 2 3 6 6 4 4 2 3 2 3 7 4 5 9 5 2 2 3 6 7
15 15 15 13 12 10 10 11 10 8 16 4 1 1 0 2 1 2 4 4 5 3 2 3 3 3 2 1 3 4 4 1 6 6 6 4 2 12 7 5 9 3 5 4 8 7 6
13 17 17 15 14 12 10 13 13 11 13 6 2 1 1 1 1 3 4 1 2 3 4 5 3 1 2 4 4 3 3 5 3 3 6 7 9 5 4 4 11 5 5 7 4 2 6
15 17 18 18 17 16 15 15 14 13 16 9 3 1 3 4 2 3 4 3 4 4 2 5 1 2 4 3 3 2 2 1 2 3 1 4 4 6 7 4 1 7 3 3 3 6 5
Wind_Direction
42 34 23 16 14 13 14 18 20 16 13 4 2 0 353 349 346 340 338 338 329 328 329 334 334 340 359 10 270 317 335 335 349 12 53 30 58 67 107 85 71 82 125 55 78 81 72
68 16 9 19 16 10 7 4 5 7 7 0 358 359 354 348 343 342 338 333 325 320 323 329 333 332 17 293 329 345 331 339 10 25 21 29 104 134 94 65 74 81 89 118 47 88 101
174 41 356 358 10 15 8 2 356 355 355 357 359 354 351 349 343 340 336 331 318 315 317 325 335 4 71 239 5 329 349 318 347 21 36 38 17 57 97 89 157 140 86 83 152 170 139
252 273 304 342 352 357 8 2 356 352 351 353 352 348 344 346 344 337 333 327 312 306 308 321 332 30 230 310 317 9 342 340 0 7 63 321 348 97 64 110 35 68 59 131 200 150 116
265 265 288 293 328 339 342 355 358 353 350 347 344 342 340 340 340 334 328 317 301 295 292 305 5 60 284 333 22 308 19 349 309 335 3 34 65 79 42 87 31 11 198 192 240 199 140
281 279 266 271 291 299 325 331 345 352 353 346 341 341 335 334 335 334 324 287 284 327 4 15 350 29 333 284 312 338 339 18 32 348 27 46 49 71 45 86 207 198 205 223 219 203 158
281 287 280 272 276 278 285 313 323 340 343 349 343 337 333 329 331 336 358 23 18 340 52 209 233 242 272 302 21 12 13 15 47 47 126 5 86 205 210 190 153 145 175 200 231 167 140
250 268 275 274 271 279 278 283 305 319 332 338 341 339 337 329 327 325 71 77 100 191 314 200 211 252 194 156 333 313 1 118 95 163 109 28 231 214 165 180 190 210 186 241 308 129 165
245 249 252 257 266 273 277 278 282 298 316 329 331 341 344 333 320 30 89 122 117 158 160 264 199 187 202 139 196 240 7 132 144 146 176 164 251 139 144 144 153 254 192 213 203 98 150
240 246 246 249 252 254 267 274 277 279 294 316 328 333 350 340 17 275 29 149 80 109 52 246 223 264 112 117 296 119 20 162 132 190 164 228 230 152 137 193 136 222 196 138 141 99 228
248 242 245 241 239 243 248 254 276 278 278 297 319 337 345 88 271 3 8 183 102 57 6 166 195 199 83 147 137 3 330 48 180 174 110 252 163 153 164 213 164 223 62 58 47 85 33
307 251 243 242 239 238 240 244 251 269 284 286 306 331 335 23 92 285 339 339 64 47 258 181 137 164 122 114 147 116 94 57 63 109 50 262 317 101 140 76 69 140 74 45 51 76 328
344 306 247 244 238 236 237 241 242 246 265 281 292 313 328 195 181 134 31 35 45 150 279 204 199 169 167 177 189 172 156 165 167 107 225 339 205 115 120 116 43 81 74 324 340 0 228
315 340 334 264 247 239 234 231 233 234 239 267 286 302 205 221 161 118 86 43 209 224 210 132 135 112 188 158 207 161 137 233 215 113 122 169 296 170 348 180 175 177 158 169 236 216 253
320 315 310 328 316 265 241 229 225 223 219 246 294 295 286 218 138 50 86 136 217 213 179 149 90 166 227 203 166 155 204 210 200 175 177 157 259 170 120 154 143 181 190 178 112 52 50
321 319 314 299 295 284 273 239 225 208 193 209 260 287 264 137 127 75 86 215 217 210 129 151 183 166 191 195 161 173 186 193 204 197 148 201 171 220 160 118 28 165 163 85 11 240 260
306 311 313 312 312 316 290 245 222 188 168 156 77 303 314 146 86 74 193 230 230 213 163 173 215 186 212 182 186 202 201 193 172 163 159 143 129 153 83 204 183 155 199 69 118 164 199
301 305 309 316 321 323 306 272 225 166 147 108 142 195 303 252 149 182 195 198 220 196 152 234 193 208 188 177 187 219 206 224 164 151 169 192 144 187 198 133 350 254 205 161 147 216 236
294 304 308 313 318 314 320 334 261 162 145 139 148 104 352 304 206 221 261 264 235 162 199 187 216 205 181 185 214 198 198 65 154 161 164 181 201 87 328 13 18 220 200 146 99 75 196
306 289 295 300 303 309 311 318 179 167 132 82 126 197 148 16 310 200 152 267 258 265 255 195 209 135 145 210 244 209 174 181 167 181 139 119 171 187 192 166 128 193 199 184 152 147 217
287 293 282 289 293 299 301 311 187 178 152 102 57 277 186 179 225 217 108 15 293 292 238 216 207 229 198 197 178 198 117 97 27 211 102 161 211 173 247 199 178 204 190 179 206 218 201
291 293 287 274 282 295 305 309 182 175 178 107 161 197 325 293 116 176 196 206 207 248 330 267 235 13 220 217 256 143 130 169 195 102 163 177 224 111 300 9 223 245 219 223 223 232 256
280 282 293 266 263 276 308 289 195 176 179 134 99 98 182 183 173 188 200 212 203 157 217 221 173 252 248 274 45 36 54 24 127 163 177 158 144 125 259 342 318 278 204 218 231 196 220
269 268 274 271 241 246 256 290 198 187 194 55 133 106 190 264 215 203 220 209 217 199 204 160 194 189 101 106 123 63 54 62 72 26 14 150 139 126 35 23 253 282 253 157 217 214 129
267 267 269 271 227 224 228 223 206 201 204 125 167 141 179 257 239 233 231 201 179 227 198 186 139 49 172 178 106 145 99 24 185 64 11 320 144 142 182 210 302 268 204 171 160 275 179
266 265 264 274 248 236 221 218 217 210 210 119 187 310 214 142 232 150 181 180 194 185 227 128 88 39 262 194 164 208 195 175 181 186 355 110 74 177 159 213 231 244 187 131 111 294 183
258 266 271 269 256 238 240 224 221 222 208 142 137 91 154 206 227 127 214 207 151 161 102 121 137 114 320 197 188 191 215 25 181 187 169 138 133 214 205 233 285 196 140 150 91 250 140
263 266 265 271 273 259 248 227 217 218 191 152 122 75 188 123 7 40 336 249 112 181 162 137 120 193 142 195 218 193 199 210 181 138 174 164 154 183 166 206 269 144 94 177 188 102 141
263 267 263 259 260 260 249 228 218 216 184 147 114 99 80 78 82 28 79 46 5 346 115 179 103 151 153 176 222 185 188 77 102 225 232 207 187 176 194 209 27 186 25 57 128 130 142